Weather in Inokovka Pervaya

Russia / Tambov Oblast     52°32′36″N   42°32′52″E
temp.,
°C
wind,
m/s
gust,
m/s
humid.,
%
clouds,
%
prec.,
mm/h
press.,
hPa
HPBL,
m
3 march, wed
wed300:000nw5109396 0.1 1007521
03:00−5nw499575 0.1 1009180
06:00−4nw5119440 0.1 1009351
09:00−3nnw6119265 0.1 1012753
12:00−3nnw7118678 0.0 1013699
15:00−3nw6108659 0.0 1015735
18:00−6wnw5108974 0.0 1015265
21:00−6w5119241 0.0 1016262
4 march, thu
thu400:00−4w6129455 0.0 1014407
03:00−3wsw6129377 0.1 1012535
06:00−2wsw71392100 0.1 1010676
09:00−1wsw81592100 0.1 1009577
12:00+1wsw91590100 0.1 1007784
15:00+1wsw8168575 0.1 1006868
18:000wsw6158398 0.0 1004537
21:00+1wsw6148598 0.0 1003660
5 march, fri
fri500:00+1wsw61398100 0.2 1001507
03:00+1wsw61398100 0.9 1000510
06:00+1wsw61297100 0.7 1000533
09:000wsw71298100 0.9 1002678
12:000wnw6999100 0.3 1005611
15:00−1n459199 0.4 1008544
18:00−3n3695100 0.1 1010227
21:00−4n3496100 0.2 1012141
6 march, sat
sat600:00−5ne3596100 0.0 1012202
03:00−7nne3492100 0.0 1012121
06:00−9n339267 0.0 101373
09:00−8nnw249183 0.0 1014158
12:00−5nw478841 0.0 1015570
15:00−5nw578022 0.0 1015830
18:00−8nw33890 0.0 101563
21:00−10nw33930 0.0 101764
7 march, sun
sun700:00−11wnw22930 0.0 101725
03:00−11wsw239331 0.0 101737
06:00−11sw47920 0.0 1016132
09:00−8sw6129113 0.0 1014622
12:00−5sw91579100 0.0 1011956
15:00−4sw101773100 0.0 10081123
18:00−3sw91873100 0.0 10061084
21:00−3sw101879100 0.0 10031039